Soldotna, AK

3:25 PM AKDT on June 28, 2017 (GMT -0800)
Soldotna

Weather History for PASX - July, 2012

Change the Weather History Date:

Sunday, July 22, 2012

  Actual Average Record
Temperature  
Mean Temperature 56 °F -  
Max Temperature 60 °F 62 °F 78 °F (1955)
Min Temperature 51 °F 48 °F 39 °F (1965)
Degree Days  
Heating Degree Days 10    
Growing Degree Days 6 (Base 50)    
Moisture  
Dew Point 50 °F    
Average Humidity 81    
Maximum Humidity 94    
Minimum Humidity 63    
Precipitation  
Precipitation 0.00 in - - ()
Sea Level Pressure  
Sea Level Pressure 29.91 in    
Wind  
Wind Speed 2 mph (NE)    
Max Wind Speed 10 mph    
Max Gust Speed 17 mph    
Visibility 10 miles    
Events      
Averages and records for this station are not official NWS values.
T = Trace of Precipitation, MM = Missing Value Source: NWS Daily Summary

Daily Weather History Graph

Daily Weather History Graph

Search for Another Location

Airport or City:

Trip Planner

Search our weather history database for the weather conditions in past years. The results will help you decide how hot, cold, wet, or windy it might be!

Date:

Astronomy

Jul. 22, 2012 Rise Set
Actual Time 5:19 AM AKDT 10:59 PM AKDT
Civil Twilight 4:07 AM AKDT 12:11 AM AKDT
Nautical Twilight 2:43 AM AKDT 1:38 AM AKDT
Astronomical Twilight Sun does not set Sun does not set
Moon 10:45 AM AKDT (7/22) 11:10 PM AKDT (7/22)
Length of Visible Light 20h 03m
Length of Day
17h 40m
Waxing Crescent, 14% of the Moon is Illuminated
Jul 22
Waxing Crescent
Jul 26
First Quarter
Aug 1
Full
Aug 9
Last Quarter
Aug 17
New

Hourly Weather History & Observations

Time (AKDT) Temp. Dew Point Humidity Pressure Visibility Wind Dir Wind Speed Gust Speed Precip Events Conditions
12:16 AM 53.6 °F 50.0 °F 88% 29.85 in 10.0 mi Calm Calm - N/A   Overcast
12:36 AM 53.6 °F 48.2 °F 82% 29.85 in 10.0 mi Calm Calm - N/A   Overcast
12:56 AM 53.6 °F 51.8 °F 94% 29.85 in 10.0 mi Calm Calm - N/A   Overcast
1:16 AM 53.6 °F 51.8 °F 94% 29.85 in 10.0 mi Calm Calm - N/A   Overcast
1:36 AM 53.6 °F 51.8 °F 94% 29.85 in 10.0 mi Calm Calm - N/A   Overcast
1:56 AM 53.6 °F 50.0 °F 88% 29.85 in 10.0 mi North 3.5 mph - N/A   Overcast
2:16 AM 53.6 °F 48.2 °F 82% 29.85 in 10.0 mi Calm Calm - N/A   Overcast
2:36 AM 53.6 °F 50.0 °F 88% 29.84 in 10.0 mi Calm Calm - N/A   Overcast
2:56 AM 53.6 °F 48.2 °F 82% 29.84 in 10.0 mi East 6.9 mph - N/A   Overcast
3:16 AM 53.6 °F 48.2 °F 82% 29.84 in 10.0 mi East 4.6 mph - N/A   Overcast
3:36 AM 53.6 °F 48.2 °F 82% 29.84 in 10.0 mi East 3.5 mph - N/A   Overcast
3:56 AM 53.6 °F 48.2 °F 82% 29.85 in 10.0 mi East 3.5 mph - N/A   Overcast
4:16 AM 53.6 °F 48.2 °F 82% 29.85 in 7.0 mi Calm Calm - N/A   Overcast
4:36 AM 53.6 °F 50.0 °F 88% 29.85 in 10.0 mi Calm Calm - N/A   Overcast
4:56 AM 51.8 °F 50.0 °F 94% 29.84 in 9.0 mi West 3.5 mph - N/A   Overcast
5:16 AM 51.8 °F 50.0 °F 94% 29.84 in 10.0 mi Calm Calm - N/A   Overcast
5:36 AM 53.6 °F 50.0 °F 88% 29.84 in 10.0 mi Calm Calm - N/A   Overcast
5:56 AM 53.6 °F 50.0 °F 88% 29.84 in 10.0 mi NW 3.5 mph - N/A   Overcast
6:16 AM 53.6 °F 50.0 °F 88% 29.83 in 10.0 mi Calm Calm - N/A   Overcast
6:36 AM 53.6 °F 50.0 °F 88% 29.83 in 10.0 mi Calm Calm - N/A   Overcast
6:56 AM 53.6 °F 50.0 °F 88% 29.84 in 10.0 mi NNE 4.6 mph - N/A   Overcast
7:16 AM 53.6 °F 50.0 °F 88% 29.84 in 10.0 mi ENE 3.5 mph - N/A   Overcast
7:36 AM 55.4 °F 51.8 °F 88% 29.84 in 10.0 mi Calm Calm - N/A   Overcast
7:56 AM 55.4 °F 51.8 °F 88% 29.85 in 10.0 mi NNE 3.5 mph - N/A   Overcast
8:16 AM 55.4 °F 51.8 °F 88% 29.86 in 10.0 mi South 3.5 mph - N/A   Overcast
8:36 AM 55.4 °F 51.8 °F 88% 29.86 in 10.0 mi NE 3.5 mph - N/A   Mostly Cloudy
8:56 AM 55.4 °F 51.8 °F 88% 29.86 in 10.0 mi East 4.6 mph - N/A   Overcast
9:16 AM 55.4 °F 51.8 °F 88% 29.86 in 10.0 mi East 5.8 mph - N/A   Overcast
9:36 AM 55.4 °F 51.8 °F 88% 29.86 in 10.0 mi East 3.5 mph - N/A   Overcast
9:56 AM 57.2 °F 51.8 °F 82% 29.87 in 10.0 mi Calm Calm - N/A   Overcast
10:16 AM 57.2 °F 51.8 °F 82% 29.87 in 10.0 mi East 3.5 mph - N/A   Overcast
10:36 AM 59.0 °F 48.2 °F 67% 29.87 in 10.0 mi ESE 3.5 mph - N/A   Overcast
10:56 AM 57.2 °F 50.0 °F 77% 29.88 in 10.0 mi East 3.5 mph - N/A   Overcast
11:16 AM 57.2 °F 50.0 °F 77% 29.89 in 10.0 mi East 4.6 mph - N/A   Overcast
11:36 AM 57.2 °F 50.0 °F 77% 29.89 in 10.0 mi ESE 3.5 mph - N/A   Overcast
11:56 AM 59.0 °F 48.2 °F 67% 29.89 in 10.0 mi Calm Calm - N/A   Overcast
12:16 PM 59.0 °F 48.2 °F 67% 29.89 in 10.0 mi Calm Calm - N/A   Overcast
12:36 PM 59.0 °F 48.2 °F 67% 29.90 in 10.0 mi NNE 3.5 mph - N/A   Overcast
12:56 PM 59.0 °F 48.2 °F 67% 29.90 in 10.0 mi Calm Calm - N/A   Overcast
1:16 PM 59.0 °F 48.2 °F 67% 29.91 in 10.0 mi North 3.5 mph - N/A   Overcast
1:36 PM 59.0 °F 48.2 °F 67% 29.91 in 10.0 mi NNW 3.5 mph - N/A   Overcast
1:56 PM 60.8 °F 48.2 °F 63% 29.91 in 10.0 mi North 3.5 mph - N/A   Overcast
2:16 PM 59.0 °F 51.8 °F 77% 29.92 in 10.0 mi NW 6.9 mph - N/A   Overcast
2:36 PM 59.0 °F 51.8 °F 77% 29.92 in 10.0 mi Calm Calm - N/A   Overcast
2:56 PM 59.0 °F 51.8 °F 77% 29.92 in 10.0 mi Calm Calm - N/A   Overcast
3:16 PM 59.0 °F 48.2 °F 67% 29.92 in 10.0 mi NNW 3.5 mph - N/A   Overcast
3:36 PM 60.8 °F 50.0 °F 68% 29.93 in 10.0 mi NNE 4.6 mph - N/A   Overcast
3:56 PM 60.8 °F 48.2 °F 63% 29.93 in 10.0 mi East 9.2 mph - N/A   Overcast
4:16 PM 60.8 °F 48.2 °F 63% 29.93 in 10.0 mi East 5.8 mph - N/A   Overcast
4:36 PM 60.8 °F 48.2 °F 63% 29.93 in 10.0 mi ENE 5.8 mph - N/A   Overcast
4:56 PM 59.0 °F 46.4 °F 63% 29.94 in 9.0 mi East 4.6 mph - N/A   Overcast
5:16 PM 57.2 °F 51.8 °F 82% 29.95 in 7.0 mi Calm Calm - N/A   Overcast
5:36 PM 57.2 °F 50.0 °F 77% 29.95 in 9.0 mi Calm Calm - N/A   Overcast
5:56 PM 57.2 °F 51.8 °F 82% 29.95 in 10.0 mi Calm Calm - N/A   Overcast
6:16 PM 57.2 °F 51.8 °F 82% 29.96 in 10.0 mi ENE 3.5 mph - N/A   Overcast
6:36 PM 57.2 °F 51.8 °F 82% 29.96 in 10.0 mi Calm Calm - N/A   Overcast
6:56 PM 59.0 °F 51.8 °F 77% 29.96 in 10.0 mi Calm Calm - N/A   Overcast
7:16 PM 57.2 °F 51.8 °F 82% 29.97 in 10.0 mi SW 10.4 mph 17.3 mph N/A   Mostly Cloudy
7:36 PM 53.6 °F 50.0 °F 88% 29.98 in 10.0 mi WSW 8.1 mph - N/A   Overcast
7:56 PM 53.6 °F 50.0 °F 88% 29.99 in 10.0 mi WSW 6.9 mph - N/A   Overcast
8:16 PM 53.6 °F 50.0 °F 88% 29.99 in 10.0 mi WSW 3.5 mph - N/A   Overcast
8:36 PM 53.6 °F 50.0 °F 88% 30.00 in 10.0 mi WSW 8.1 mph - N/A   Overcast
8:56 PM 53.6 °F 50.0 °F 88% 30.00 in 10.0 mi SW 9.2 mph - N/A   Overcast
9:16 PM 53.6 °F 48.2 °F 82% 30.01 in 10.0 mi SW 6.9 mph - N/A   Overcast
9:36 PM 53.6 °F 48.2 °F 82% 30.02 in 10.0 mi Calm Calm - N/A   Overcast
9:56 PM 53.6 °F 48.2 °F 82% 30.03 in 10.0 mi WSW 5.8 mph - N/A   Overcast
10:16 PM 51.8 °F 48.2 °F 88% 30.03 in 10.0 mi West 8.1 mph - N/A   Overcast
10:36 PM 51.8 °F 48.2 °F 88% 30.04 in 6.0 mi West 9.2 mph - N/A   Overcast
10:56 PM 51.8 °F 48.2 °F 88% 30.05 in 10.0 mi SW 4.6 mph - N/A   Overcast
11:16 PM 51.8 °F 48.2 °F 88% 30.05 in 9.0 mi SW 4.6 mph - N/A   Overcast
11:36 PM 51.8 °F 48.2 °F 88% 30.06 in 10.0 mi WSW 3.5 mph - N/A   Overcast
11:56 PM 51.8 °F 48.2 °F 88% 30.06 in 10.0 mi SW 3.5 mph - N/A   Overcast